Time,TemperatureF,DewpointF,PressureIn,WindDirection,WindDirectionDegrees,WindSpeedMPH,WindSpeedGustMPH,Humidity,HourlyPrecipIn,Conditions,Clouds,dailyrainin,SoftwareType,DateUTC
2013-09-18 00:01:00,61.2,56.7,30.15,WNW,292,1.7,-999.0,85,-99.99,,,0.00,Acu-Link.com,2013-09-18 04:01:00,
2013-09-18 00:16:00,61.0,56.8,30.16,SE,135,1.7,-999.0,86,-99.99,,,0.00,Acu-Link.com,2013-09-18 04:16:00,
2013-09-18 00:31:00,60.6,57.0,30.16,SE,135,0.0,-999.0,88,-99.99,,,0.00,Acu-Link.com,2013-09-18 04:31:00,
2013-09-18 00:47:00,60.4,56.8,30.15,NNE,22,0.0,-999.0,88,-99.99,,,0.00,Acu-Link.com,2013-09-18 04:47:00,
2013-09-18 01:02:00,60.3,56.7,30.15,SSW,202,0.0,-999.0,88,-99.99,,,0.00,Acu-Link.com,2013-09-18 05:02:00,
2013-09-18 01:17:00,60.4,56.5,30.14,West,270,2.2,-999.0,87,-99.99,,,0.00,Acu-Link.com,2013-09-18 05:17:00,
2013-09-18 01:32:00,60.6,56.7,30.15,East,90,0.0,-999.0,87,-99.99,,,0.00,Acu-Link.com,2013-09-18 05:32:00,
2013-09-18 01:48:00,60.6,56.4,30.14,East,90,0.0,-999.0,86,-99.99,,,0.00,Acu-Link.com,2013-09-18 05:48:00,
2013-09-18 02:03:00,60.8,56.9,30.15,SW,225,0.0,-999.0,87,-99.99,,,0.00,Acu-Link.com,2013-09-18 06:03:00,
2013-09-18 02:18:00,60.8,56.6,30.15,WNW,292,0.0,-999.0,86,-99.99,,,0.00,Acu-Link.com,2013-09-18 06:18:00,
2013-09-18 02:34:00,61.5,56.3,30.15,SW,225,2.2,-999.0,83,-99.99,,,0.00,Acu-Link.com,2013-09-18 06:34:00,
2013-09-18 02:49:00,62.1,56.5,30.14,SSE,157,0.0,-999.0,82,-99.99,,,0.00,Acu-Link.com,2013-09-18 06:49:00,
2013-09-18 03:04:00,61.7,55.8,30.14,West,270,1.1,-999.0,81,-99.99,,,0.00,Acu-Link.com,2013-09-18 07:04:00,
2013-09-18 03:20:00,61.5,56.6,30.13,NW,315,4.7,-999.0,84,-99.99,,,0.00,Acu-Link.com,2013-09-18 07:20:00,
2013-09-18 03:35:00,61.9,55.7,30.14,WNW,292,2.7,-999.0,80,-99.99,,,0.00,Acu-Link.com,2013-09-18 07:35:00,
2013-09-18 03:50:00,61.9,55.7,30.13,West,270,1.7,-999.0,80,-99.99,,,0.00,Acu-Link.com,2013-09-18 07:50:00,
2013-09-18 04:07:00,62.1,54.8,30.13,WSW,247,3.2,-999.0,77,-99.99,,,0.00,Acu-Link.com,2013-09-18 08:07:00,
2013-09-18 04:23:00,62.1,54.8,30.13,SE,135,1.7,-999.0,77,-99.99,,,0.00,Acu-Link.com,2013-09-18 08:23:00,
2013-09-18 04:38:00,62.1,55.2,30.13,West,270,0.0,-999.0,78,-99.99,,,0.00,Acu-Link.com,2013-09-18 08:38:00,
2013-09-18 04:53:00,61.9,55.7,30.13,NW,315,4.2,-999.0,80,-99.99,,,0.00,Acu-Link.com,2013-09-18 08:53:00,
2013-09-18 05:08:00,61.9,54.6,30.14,ENE,67,2.7,-999.0,77,-99.99,,,0.00,Acu-Link.com,2013-09-18 09:08:00,
2013-09-18 05:23:00,61.3,55.4,30.13,ENE,67,2.2,-999.0,81,-99.99,,,0.00,Acu-Link.com,2013-09-18 09:23:00,
2013-09-18 05:39:00,61.3,54.4,30.12,WNW,292,2.2,-999.0,78,-99.99,,,0.00,Acu-Link.com,2013-09-18 09:39:00,
2013-09-18 05:54:00,61.3,55.1,30.13,ESE,112,1.7,-999.0,80,-99.99,,,0.00,Acu-Link.com,2013-09-18 09:54:00,
2013-09-18 06:09:00,61.0,55.1,30.13,West,270,1.7,-999.0,81,-99.99,,,0.00,Acu-Link.com,2013-09-18 10:09:00,
2013-09-18 06:24:00,60.8,54.9,30.14,SE,135,0.0,-999.0,81,-99.99,,,0.00,Acu-Link.com,2013-09-18 10:24:00,
2013-09-18 06:39:00,61.0,53.7,30.15,South,180,0.0,-999.0,77,-99.99,,,0.00,Acu-Link.com,2013-09-18 10:39:00,
2013-09-18 06:55:00,61.0,54.4,30.15,NNE,22,1.7,-999.0,79,-99.99,,,0.00,Acu-Link.com,2013-09-18 10:55:00,
2013-09-18 07:10:00,61.2,54.3,30.15,ENE,67,1.7,-999.0,78,-99.99,,,0.00,Acu-Link.com,2013-09-18 11:10:00,
2013-09-18 07:25:00,61.0,53.7,30.15,NE,45,1.7,-999.0,77,-99.99,,,0.00,Acu-Link.com,2013-09-18 11:25:00,
2013-09-18 07:40:00,61.0,53.7,30.16,WNW,292,5.8,-999.0,77,-99.99,,,0.00,Acu-Link.com,2013-09-18 11:40:00,
2013-09-18 07:56:00,61.0,53.7,30.16,NNW,337,3.2,-999.0,77,-99.99,,,0.00,Acu-Link.com,2013-09-18 11:56:00,
2013-09-18 08:11:00,60.8,54.2,30.16,SW,225,1.1,-999.0,79,-99.99,,,0.00,Acu-Link.com,2013-09-18 12:11:00,
2013-09-18 08:26:00,60.6,54.0,30.17,WNW,292,2.2,-999.0,79,-99.99,,,0.00,Acu-Link.com,2013-09-18 12:26:00,
2013-09-18 08:42:00,61.0,54.1,30.17,WSW,247,0.0,-999.0,78,-99.99,,,0.00,Acu-Link.com,2013-09-18 12:42:00,
2013-09-18 08:57:00,61.2,54.3,30.16,NE,45,1.7,-999.0,78,-99.99,,,0.00,Acu-Link.com,2013-09-18 12:57:00,
2013-09-18 09:12:00,61.5,56.0,30.18,East,90,2.7,-999.0,82,-99.99,,,0.00,Acu-Link.com,2013-09-18 13:12:00,
2013-09-18 09:27:00,62.8,55.8,30.17,NNE,22,2.7,-999.0,78,-99.99,,,0.00,Acu-Link.com,2013-09-18 13:27:00,
2013-09-18 09:42:00,63.5,56.5,30.17,NW,315,2.2,-999.0,78,-99.99,,,0.00,Acu-Link.com,2013-09-18 13:42:00,
2013-09-18 09:57:00,63.3,55.6,30.17,WNW,292,2.2,-999.0,76,-99.99,,,0.00,Acu-Link.com,2013-09-18 13:57:00,
2013-09-18 10:12:00,63.5,55.8,30.18,WNW,292,3.2,-999.0,76,-99.99,,,0.00,Acu-Link.com,2013-09-18 14:12:00,
2013-09-18 10:28:00,65.7,56.4,30.18,NE,45,1.1,-999.0,72,-99.99,,,0.00,Acu-Link.com,2013-09-18 14:28:00,
2013-09-18 10:43:00,66.4,57.5,30.18,East,90,3.2,-999.0,73,-99.99,,,0.00,Acu-Link.com,2013-09-18 14:43:00,
2013-09-18 10:58:00,66.2,58.8,30.18,NW,315,3.7,-999.0,77,-99.99,,,0.00,Acu-Link.com,2013-09-18 14:58:00,
2013-09-18 11:14:00,67.6,58.2,30.17,West,270,1.1,-999.0,72,-99.99,,,0.00,Acu-Link.com,2013-09-18 15:14:00,
2013-09-18 11:29:00,70.0,59.4,30.17,ESE,112,2.7,-999.0,69,-99.99,,,0.00,Acu-Link.com,2013-09-18 15:29:00,
2013-09-18 11:44:00,70.5,58.6,30.16,West,270,1.7,-999.0,66,-99.99,,,0.00,Acu-Link.com,2013-09-18 15:44:00,
2013-09-18 12:00:00,71.2,59.2,30.16,ESE,112,1.7,-999.0,66,-99.99,,,0.00,Acu-Link.com,2013-09-18 16:00:00,
2013-09-18 12:15:00,72.7,59.8,30.15,West,270,0.0,-999.0,64,-99.99,,,0.00,Acu-Link.com,2013-09-18 16:15:00,
2013-09-18 12:30:00,73.2,59.4,30.14,SW,225,2.7,-999.0,62,-99.99,,,0.00,Acu-Link.com,2013-09-18 16:30:00,
2013-09-18 12:45:00,73.4,59.6,30.14,West,270,2.7,-999.0,62,-99.99,,,0.00,Acu-Link.com,2013-09-18 16:45:00,
2013-09-18 13:00:00,72.3,60.3,30.14,ESE,112,1.1,-999.0,66,-99.99,,,0.00,Acu-Link.com,2013-09-18 17:00:00,
2013-09-18 13:15:00,72.1,60.1,30.14,NNE,22,0.0,-999.0,66,-99.99,,,0.00,Acu-Link.com,2013-09-18 17:15:00,
2013-09-18 13:30:00,72.5,60.9,30.14,ENE,67,1.1,-999.0,67,-99.99,,,0.00,Acu-Link.com,2013-09-18 17:30:00,
2013-09-18 13:46:00,71.6,61.3,30.14,SE,135,0.0,-999.0,70,-99.99,,,0.00,Acu-Link.com,2013-09-18 17:46:00,
2013-09-18 14:01:00,71.4,61.9,30.14,SE,135,0.0,-999.0,72,-99.99,,,0.00,Acu-Link.com,2013-09-18 18:01:00,
2013-09-18 14:16:00,70.9,61.0,30.14,SE,135,0.0,-999.0,71,-99.99,,,0.00,Acu-Link.com,2013-09-18 18:16:00,
2013-09-18 14:31:00,70.2,61.5,30.13,East,90,0.0,-999.0,74,-99.99,,,0.00,Acu-Link.com,2013-09-18 18:31:00,
2013-09-18 14:47:00,70.3,60.8,30.13,West,270,0.0,-999.0,72,-99.99,,,0.00,Acu-Link.com,2013-09-18 18:47:00,
2013-09-18 15:02:00,70.2,60.3,30.13,SW,225,1.7,-999.0,71,-99.99,,,0.00,Acu-Link.com,2013-09-18 19:02:00,
2013-09-18 15:17:00,69.6,62.1,30.12,ESE,112,0.0,-999.0,77,-99.99,,,0.00,Acu-Link.com,2013-09-18 19:17:00,
2013-09-18 15:32:00,70.2,61.5,30.11,WNW,292,0.0,-999.0,74,-99.99,,,0.00,Acu-Link.com,2013-09-18 19:32:00,
2013-09-18 15:48:00,69.8,61.5,30.10,ESE,112,0.0,-999.0,75,-99.99,,,0.00,Acu-Link.com,2013-09-18 19:48:00,
2013-09-18 16:03:00,70.2,60.7,30.10,NNW,337,3.7,-999.0,72,-99.99,,,0.00,Acu-Link.com,2013-09-18 20:03:00,
2013-09-18 16:18:00,70.3,62.0,30.10,SSE,157,0.0,-999.0,75,-99.99,,,0.00,Acu-Link.com,2013-09-18 20:18:00,
2013-09-18 16:34:00,70.3,61.6,30.10,SE,135,0.0,-999.0,74,-99.99,,,0.00,Acu-Link.com,2013-09-18 20:34:00,
2013-09-18 16:49:00,71.1,61.6,30.09,ESE,112,0.0,-999.0,72,-99.99,,,0.00,Acu-Link.com,2013-09-18 20:49:00,
2013-09-18 17:04:00,70.2,60.7,30.09,NE,45,2.2,-999.0,72,-99.99,,,0.00,Acu-Link.com,2013-09-18 21:04:00,
2013-09-18 17:19:00,70.5,61.8,30.09,NNW,337,0.0,-999.0,74,-99.99,,,0.00,Acu-Link.com,2013-09-18 21:19:00,
2013-09-18 17:35:00,70.0,62.1,30.09,ESE,112,0.0,-999.0,76,-99.99,,,0.00,Acu-Link.com,2013-09-18 21:35:00,
2013-09-18 17:50:00,69.6,60.9,30.09,NNW,337,1.1,-999.0,74,-99.99,,,0.00,Acu-Link.com,2013-09-18 21:50:00,
2013-09-18 18:05:00,69.3,62.1,30.09,West,270,0.0,-999.0,78,-99.99,,,0.00,Acu-Link.com,2013-09-18 22:05:00,
2013-09-18 18:20:00,68.7,62.6,30.09,East,90,0.0,-999.0,81,-99.99,,,0.00,Acu-Link.com,2013-09-18 22:20:00,
2013-09-18 18:36:00,68.9,62.8,30.09,SE,135,0.0,-999.0,81,-99.99,,,0.00,Acu-Link.com,2013-09-18 22:36:00,
2013-09-18 18:51:00,68.2,62.1,30.08,SSE,157,0.0,-999.0,81,-99.99,,,0.00,Acu-Link.com,2013-09-18 22:51:00,
2013-09-18 19:06:00,67.5,62.1,30.08,SW,225,0.0,-999.0,83,-99.99,,,0.00,Acu-Link.com,2013-09-18 23:06:00,
2013-09-18 19:22:00,66.7,61.7,30.08,ESE,112,0.0,-999.0,84,-99.99,,,0.00,Acu-Link.com,2013-09-18 23:22:00,
2013-09-18 19:37:00,66.0,62.0,30.07,NNW,337,1.7,-999.0,87,-99.99,,,0.00,Acu-Link.com,2013-09-18 23:37:00,
2013-09-18 19:52:00,65.8,61.2,30.08,East,90,0.0,-999.0,85,-99.99,,,0.00,Acu-Link.com,2013-09-18 23:52:00,
2013-09-18 20:08:00,65.5,61.2,30.08,SSE,157,0.0,-999.0,86,-99.99,,,0.00,Acu-Link.com,2013-09-19 00:08:00,
2013-09-18 20:23:00,64.6,61.0,30.09,SSE,157,0.0,-999.0,88,-99.99,,,0.00,Acu-Link.com,2013-09-19 00:23:00,
2013-09-18 20:38:00,64.0,61.0,30.09,SE,135,0.0,-999.0,90,-99.99,,,0.00,Acu-Link.com,2013-09-19 00:38:00,
2013-09-18 20:54:00,63.3,60.9,30.10,SSE,157,0.0,-999.0,92,-99.99,,,0.00,Acu-Link.com,2013-09-19 00:54:00,
2013-09-18 21:09:00,63.1,61.0,30.10,South,180,0.0,-999.0,93,-99.99,,,0.00,Acu-Link.com,2013-09-19 01:09:00,
2013-09-18 21:24:00,62.8,60.7,30.10,West,270,0.0,-999.0,93,-99.99,,,0.00,Acu-Link.com,2013-09-19 01:24:00,
2013-09-18 21:40:00,62.6,60.8,30.11,ENE,67,0.0,-999.0,94,-99.99,,,0.00,Acu-Link.com,2013-09-19 01:40:00,
2013-09-18 22:10:00,61.9,60.5,30.11,South,180,0.0,-999.0,95,-99.99,,,0.00,Acu-Link.com,2013-09-19 02:10:00,
2013-09-18 22:26:00,61.5,60.1,30.11,NNE,22,0.0,-999.0,95,-99.99,,,0.00,Acu-Link.com,2013-09-19 02:26:00,
2013-09-18 22:41:00,61.0,59.8,30.11,East,90,0.0,-999.0,96,-99.99,,,0.00,Acu-Link.com,2013-09-19 02:41:00,
2013-09-18 22:56:00,60.6,59.7,30.11,East,90,0.0,-999.0,97,-99.99,,,0.00,Acu-Link.com,2013-09-19 02:56:00,
2013-09-18 23:12:00,60.1,59.2,30.11,SE,135,0.0,-999.0,97,-99.99,,,0.00,Acu-Link.com,2013-09-19 03:12:00,
2013-09-18 23:27:00,59.7,59.1,30.11,SSE,157,0.0,-999.0,98,-99.99,,,0.00,Acu-Link.com,2013-09-19 03:27:00,